[[{"header":{"parameterUnit":"m.s-1","parameterCategory":1,"la1":30.2991,"la2":30.254,"lo1":-89.0895,"lo2":-89.0444,"dy":0.0017,"dx":0.0017,"nx":28,"ny":28,"refTime":"2025-08-24T21:00:00:Z","depth":0,"parameterNumber":2,"parameterNumberName":"U-component_of_WINDS"},"data":[0,0,0,0,0,0,0,0,0,0,0,0,0,0,0,0,0,0,0,0,0,0,0,0,0,0,0,0,0,0,0,0,0,0,0,0,0,0,0,0,0,0,0,0,0,0,0,0,0,0,0,0,0,0,0,0,0,0,-1.8892,-1.8892,0,-1.8886,-1.8886,-1.8885,-1.8832,-1.8831,-1.883,-1.8829,-1.8822,-1.8824,-1.8825,0,0,0,0,0,0,0,0,0,0,0,0,0,-1.8856,-1.8857,-1.8892,-1.8892,-1.8892,-1.8886,-1.8886,-1.8885,-1.8833,-1.8831,-1.883,-1.8828,-1.8822,-1.8823,-1.8825,0,0,0,0,0,0,0,0,0,0,0,0,0,-1.8863,-1.8858,-1.8892,-1.8865,-1.8862,-1.8886,-1.8886,-1.8885,-1.8833,-1.8831,-1.8829,-1.8827,-1.8822,-1.8823,-1.8825,-1.8874,0,0,-1.883,-1.883,0,0,0,0,0,0,0,0,-1.8863,-1.8865,-1.8869,-1.8866,-1.8864,-1.8858,-1.8871,-1.8882,-1.8834,-1.8844,-1.8829,-1.8826,-1.8836,-1.8836,-1.8839,-1.8874,-1.8874,-1.883,-1.8831,-1.8831,-1.8832,0,0,0,0,0,0,0,-1.8863,-1.8865,-1.8889,-1.8869,-1.8866,-1.8852,-1.8851,-1.8873,-1.8851,-1.8843,-1.8839,-1.8839,-1.8834,-1.8838,-1.8839,-1.8873,-1.883,-1.8831,-1.8832,-1.8833,-1.8945,-1.8947,0,0,0,0,0,0,-1.8866,-1.8865,-1.8889,-1.8889,-1.8858,-1.8854,-1.8853,-1.8862,-1.8851,-1.8847,-1.8841,-1.8837,-1.8836,-1.8837,-1.8838,-1.8893,-1.8831,-1.8833,-1.8834,-1.8943,-1.8946,-1.8948,0,0,0,0,0,0,-1.8865,-1.8869,-1.889,-1.8876,-1.8877,-1.8857,-1.8867,-1.8863,-1.8866,-1.8849,-1.8845,-1.8849,-1.8835,-1.8836,-1.8865,-1.8892,-1.8834,-1.8835,-1.8941,-1.8944,-1.8947,-1.9004,0,0,0,0,0,0,-1.8865,-1.8869,-1.8888,-1.8877,-1.8878,-1.8917,-1.8869,-1.8864,-1.8869,-1.8864,-1.8855,-1.8852,-1.8833,-1.8863,-1.8867,-1.8893,-1.8836,-1.8938,-1.8942,-1.8946,-1.9,-1.9009,-1.9017,0,0,0,0,0,-1.8864,-1.8905,-1.8889,-1.8892,-1.8902,-1.8919,-1.892,-1.8897,-1.8872,-1.889,-1.8878,-1.8852,-1.8889,-1.8866,-1.887,-1.8898,-1.8936,-1.8941,-1.8945,-1.8996,-1.9007,-1.9016,0,0,0,0,0,0,-1.892,-1.8903,-1.8885,-1.8924,-1.8923,-1.891,-1.8932,-1.891,-1.8916,-1.8911,-1.8883,-1.8881,-1.8914,-1.8909,-1.8884,-1.8943,-1.8908,-1.8913,-1.8945,-1.8955,-1.8964,-1.8963,-1.8838,0,0,0,0,0,-1.8937,-1.8953,-1.8937,-1.8973,-1.8973,-1.8953,-1.896,-1.8942,-1.894,-1.8939,-1.893,-1.8929,-1.894,-1.8948,-1.8957,-1.8999,-1.8995,-1.902,-1.9028,-1.9035,-1.904,-1.9059,-1.9069,-1.8963,-1.8963,-1.8963,0,0,-1.8973,-1.8965,-1.8977,-1.8984,-1.8981,-1.8997,-1.8953,-1.8972,-1.8983,-1.8942,-1.8968,-1.8961,-1.8958,-1.8993,-1.9008,-1.899,-1.9069,-1.9041,-1.9047,-1.9048,-1.9065,-1.9075,-1.9084,-1.8966,-1.8965,-1.8965,0,0,-1.9045,-1.9042,-1.907,-1.9067,-1.9063,-1.9049,-1.9056,-1.9046,-1.9039,-1.9065,-1.9034,-1.9047,-1.9067,-1.9065,-1.9067,-1.9136,-1.9111,-1.914,-1.9184,-1.9203,-1.9211,-1.9218,-1.9241,-1.9249,-1.9145,-1.9145,-1.9145,0,-1.9089,-1.9112,-1.9087,-1.9108,-1.9111,-1.9074,-1.9101,-1.9101,-1.91,-1.9103,-1.9083,-1.9105,-1.9101,-1.9134,-1.915,-1.9154,-1.9159,-1.914,-1.9212,-1.9219,-1.9225,-1.9246,-1.9255,-1.9149,-1.9148,-1.9148,-1.9148,0,-1.9165,-1.9182,-1.9205,-1.9204,-1.921,-1.9234,-1.9212,-1.9221,-1.9203,-1.9191,-1.9216,-1.921,-1.9215,-1.9222,-1.9206,-1.9252,-1.9241,-1.9217,-1.918,-1.9239,-1.9258,-1.9266,-1.9153,-1.9152,-1.9151,-1.915,0,0,-1.9273,-1.9257,-1.9266,-1.9264,-1.9256,-1.9268,-1.929,-1.9295,-1.9302,-1.9303,-1.9319,-1.9336,-1.9313,-1.9315,-1.9298,-1.9315,-1.9367,-1.9289,-1.9288,-1.9301,-1.9416,-1.9432,-1.9442,-1.9352,-1.9353,-1.9354,-1.9415,0,-1.934,-1.9376,-1.9353,-1.9392,-1.9406,-1.937,-1.9389,-1.9386,-1.9375,-1.9384,-1.9372,-1.9384,-1.9354,-1.9355,-1.937,-1.9358,-1.939,-1.9354,-1.9365,-1.9366,-1.9365,-1.9452,-1.947,-1.9528,-1.9423,-1.9424,-1.9425,0,-1.9423,-1.9426,-1.9466,-1.9453,-1.9458,-1.9475,-1.9477,-1.9487,-1.9482,-1.9473,-1.9475,-1.9452,-1.9471,-1.9437,-1.9462,-1.9438,-1.9441,-1.9436,-1.9438,-1.9436,-1.9398,-1.9451,-1.9546,-1.9554,-1.9437,-1.9436,-1.9435,0,-1.9494,-1.9509,-1.9533,-1.9533,-1.952,-1.9532,-1.9527,-1.9521,-1.9525,-1.9527,-1.9528,-1.9533,-1.9535,-1.9539,-1.9518,-1.9495,-1.9545,-1.9509,-1.9536,-1.9537,-1.9547,-1.9546,-1.9642,-1.9553,-1.9553,-1.9553,-1.9553,0,-1.957,-1.9596,-1.9565,-1.958,-1.9607,-1.9581,-1.9608,-1.9599,-1.9593,-1.9605,-1.9576,-1.9588,-1.956,-1.9569,-1.9553,-1.9575,-1.9577,-1.9569,-1.9564,-1.957,-1.9571,-1.9571,-1.9565,-1.9555,-1.9555,-1.9554,-1.9554,0,-1.9654,-1.9635,-1.9659,-1.9644,-1.964,-1.9661,-1.9647,-1.966,-1.9647,-1.9663,-1.9665,-1.9644,-1.9653,-1.9633,-1.9639,-1.9628,-1.9659,-1.9649,-1.966,-1.9656,-1.9683,-1.968,-1.978,-1.9791,-1.9698,-1.9699,-1.97,0,-1.9702,-1.9721,-1.9707,-1.9713,-1.9709,-1.9719,-1.9722,-1.9698,-1.9702,-1.9697,-1.971,-1.9717,-1.972,-1.9736,-1.9721,-1.9725,-1.9713,-1.9748,-1.9714,-1.9719,-1.9711,-1.9709,-1.9709,-1.9754,-1.9756,-1.9756,-1.9757,0,-1.979,-1.9779,-1.9785,-1.9787,-1.9792,-1.9793,-1.9791,-1.9798,-1.9771,-1.9778,-1.9786,-1.9788,-1.9794,-1.98,-1.98,-1.9795,-1.9771,-1.9768,-1.9774,-1.978,-1.9785,-1.978,-1.9677,-1.9766,-1.9765,-1.9764,-1.9764,-1.9763,-1.9856,-1.9869,-1.9861,-1.9868,-1.9864,-1.9863,-1.9874,-1.9861,-1.9868,-1.987,-1.9855,-1.9866,-1.9859,-1.9857,-1.9853,-1.9861,-1.9845,-1.9855,-1.9857,-1.9859,-1.9862,-1.9785,-1.9862,-1.9861,-1.9861,-1.9861,-1.9861,0,-1.994,-1.9932,-1.9939,-1.9937,-1.9942,-1.992,-1.9917,-1.9922,-1.9932,-1.9928,-1.9931,-1.994,-1.9945,-1.993,-1.9933,-1.9942,-1.9931,-1.9943,-1.9941,-1.994,-1.9877,-1.9871,-1.9952,-1.9952,-1.9952,-1.9952,-1.9952,-1.9952,-1.9984,-2.0005,-1.9993,-2.0011,-2.0003,-2.0013,-2.0013,-2.0011,-2.0007,-2.0017,-2.0021,-2.0012,-2.0003,-2.0004,-2.0007,-2.0003,-2.0004,-2.002,-2.0012,-1.9953,-1.9944,-1.9936,-1.9929,-2.0021,-2.0021,-2.0073,-2.0073,-2.0073]},{"header":{"parameterUnit":"m.s-1","parameterCategory":1,"la1":30.2991,"la2":30.254,"lo1":-89.0895,"lo2":-89.0444,"dy":0.0017,"dx":0.0017,"nx":28,"ny":28,"refTime":"2025-08-24T21:00:00:Z","depth":0,"parameterNumber":3,"parameterNumberName":"V-component_of_WINDS"},"data":[0,0,0,0,0,0,0,0,0,0,0,0,0,0,0,0,0,0,0,0,0,0,0,0,0,0,0,0,0,0,0,0,0,0,0,0,0,0,0,0,0,0,0,0,0,0,0,0,0,0,0,0,0,0,0,0,0,0,-0.9727,-0.9727,0,-0.9794,-0.9795,-0.9796,-0.9858,-0.9859,-0.986,-0.986,-0.9929,-0.993,-0.9931,0,0,0,0,0,0,0,0,0,0,0,0,0,-0.965,-0.9651,-0.9727,-0.9727,-0.9728,-0.9794,-0.9795,-0.9796,-0.9858,-0.9859,-0.986,-0.9861,-0.9928,-0.9929,-0.9931,0,0,0,0,0,0,0,0,0,0,0,0,0,-0.9697,-0.9652,-0.9726,-0.9767,-0.9772,-0.9794,-0.9795,-0.9796,-0.9858,-0.9859,-0.986,-0.9861,-0.9928,-0.9929,-0.9931,-0.9918,0,0,-0.9936,-0.9937,0,0,0,0,0,0,0,0,-0.9694,-0.97,-0.976,-0.9764,-0.9769,-0.9819,-0.9793,-0.9837,-0.9858,-0.9825,-0.986,-0.9862,-0.9891,-0.9896,-0.9906,-0.9921,-0.9924,-0.9936,-0.9937,-0.9938,-0.9938,0,0,0,0,0,0,0,-0.9691,-0.9697,-0.9753,-0.9761,-0.9767,-0.9782,-0.979,-0.9802,-0.9851,-0.9828,-0.9833,-0.984,-0.9894,-0.9904,-0.9908,-0.9925,-0.9936,-0.9938,-0.9939,-0.9939,-0.9932,-0.9931,0,0,0,0,0,0,-0.9682,-0.9694,-0.9751,-0.9755,-0.9734,-0.9782,-0.9791,-0.9802,-0.9851,-0.9859,-0.9839,-0.9842,-0.9901,-0.9906,-0.9911,-0.9898,-0.9938,-0.9939,-0.994,-0.9934,-0.9932,-0.9931,0,0,0,0,0,0,-0.968,-0.9686,-0.9749,-0.9726,-0.9735,-0.9782,-0.9794,-0.9803,-0.9813,-0.9859,-0.9868,-0.984,-0.9902,-0.9908,-0.9916,-0.9901,-0.994,-0.9942,-0.9935,-0.9933,-0.9931,-0.9872,0,0,0,0,0,0,-0.9677,-0.9685,-0.9681,-0.9726,-0.9736,-0.9752,-0.9793,-0.9803,-0.9816,-0.9821,-0.9863,-0.9871,-0.9903,-0.9913,-0.9917,-0.9904,-0.9943,-0.9936,-0.9934,-0.9932,-0.9875,-0.9868,-0.9862,0,0,0,0,0,-0.9674,-0.9662,-0.968,-0.9687,-0.9732,-0.9751,-0.9758,-0.9795,-0.9814,-0.981,-0.984,-0.987,-0.9902,-0.9913,-0.9919,-0.9905,-0.9937,-0.9935,-0.9932,-0.9878,-0.987,-0.9863,0,0,0,0,0,0,-0.9614,-0.9668,-0.969,-0.9691,-0.9716,-0.9762,-0.9758,-0.9785,-0.9805,-0.9809,-0.9855,-0.9864,-0.9866,-0.9887,-0.9898,-0.9895,-0.9924,-0.9922,-0.9881,-0.9873,-0.9867,-0.9861,-0.9944,0,0,0,0,0,-0.9601,-0.9612,-0.9659,-0.9656,-0.9667,-0.971,-0.972,-0.9747,-0.9775,-0.9786,-0.9816,-0.9841,-0.9857,-0.9867,-0.9884,-0.9879,-0.9889,-0.9873,-0.9867,-0.9861,-0.9858,-0.9856,-0.9849,-0.9922,-0.9922,-0.9922,0,0,-0.9574,-0.9605,-0.9609,-0.9644,-0.9667,-0.9677,-0.9719,-0.9728,-0.9736,-0.9787,-0.9796,-0.9819,-0.985,-0.9851,-0.9853,-0.9868,-0.9841,-0.9858,-0.9853,-0.9853,-0.9853,-0.9846,-0.984,-0.992,-0.9921,-0.9921,0,0,-0.9529,-0.9554,-0.9554,-0.9575,-0.9609,-0.9638,-0.9638,-0.9679,-0.9697,-0.9706,-0.9744,-0.9754,-0.9781,-0.9801,-0.9815,-0.9778,-0.9806,-0.9783,-0.9748,-0.9745,-0.9739,-0.9734,-0.972,-0.9714,-0.978,-0.978,-0.978,0,-0.9491,-0.9508,-0.955,-0.9557,-0.957,-0.9618,-0.9617,-0.9636,-0.9673,-0.9682,-0.9699,-0.9733,-0.9758,-0.9763,-0.9754,-0.9764,-0.9764,-0.9777,-0.9737,-0.9732,-0.9729,-0.9715,-0.9709,-0.9777,-0.9777,-0.9778,-0.9778,0,-0.9459,-0.947,-0.9466,-0.95,-0.9514,-0.9517,-0.9558,-0.9567,-0.9593,-0.962,-0.9628,-0.9659,-0.9683,-0.9687,-0.9712,-0.9696,-0.9704,-0.9729,-0.9758,-0.9718,-0.9705,-0.9701,-0.9773,-0.9774,-0.9775,-0.9775,0,0,-0.9377,-0.9435,-0.9432,-0.9448,-0.9489,-0.9498,-0.9503,-0.9527,-0.9533,-0.9557,-0.9562,-0.9583,-0.9606,-0.9621,-0.965,-0.9648,-0.9614,-0.9672,-0.9674,-0.9659,-0.9596,-0.9576,-0.9569,-0.9634,-0.9633,-0.9632,-0.9593,0,-0.9338,-0.9349,-0.9387,-0.9386,-0.9397,-0.9442,-0.9446,-0.9471,-0.9496,-0.9508,-0.9536,-0.955,-0.958,-0.9589,-0.9589,-0.9618,-0.9602,-0.9622,-0.9637,-0.9637,-0.9626,-0.9564,-0.9543,-0.9504,-0.9589,-0.9588,-0.9587,0,-0.9293,-0.9314,-0.9315,-0.9355,-0.9361,-0.9364,-0.9388,-0.9399,-0.9428,-0.9447,-0.9464,-0.9496,-0.9503,-0.9531,-0.9541,-0.9553,-0.9562,-0.9577,-0.9576,-0.9578,-0.9608,-0.9561,-0.9493,-0.9486,-0.9581,-0.9581,-0.9582,0,-0.9231,-0.926,-0.9264,-0.9277,-0.9324,-0.9324,-0.9344,-0.9374,-0.9386,-0.9407,-0.9415,-0.9436,-0.9448,-0.9464,-0.95,-0.9517,-0.9505,-0.9537,-0.9519,-0.9518,-0.9513,-0.9512,-0.9443,-0.9521,-0.9521,-0.9521,-0.9521,0,-0.9182,-0.9181,-0.9237,-0.9239,-0.9238,-0.9281,-0.9279,-0.9303,-0.933,-0.9337,-0.9378,-0.9383,-0.9432,-0.9443,-0.9471,-0.9474,-0.9479,-0.9493,-0.9501,-0.9489,-0.9487,-0.9494,-0.9497,-0.952,-0.952,-0.952,-0.9521,0,-0.9112,-0.915,-0.9157,-0.9201,-0.9212,-0.9209,-0.9246,-0.925,-0.9278,-0.9286,-0.929,-0.9334,-0.9349,-0.9387,-0.9412,-0.9431,-0.9426,-0.944,-0.9415,-0.942,-0.9399,-0.94,-0.933,-0.9323,-0.9407,-0.9406,-0.9406,0,-0.9078,-0.9078,-0.9121,-0.9129,-0.9147,-0.9159,-0.9171,-0.9213,-0.9224,-0.9257,-0.9256,-0.9274,-0.9291,-0.9313,-0.9347,-0.9366,-0.938,-0.9355,-0.9383,-0.9371,-0.9378,-0.9376,-0.9376,-0.9347,-0.9346,-0.9345,-0.9345,0,-0.9012,-0.9031,-0.9046,-0.9068,-0.9081,-0.91,-0.9122,-0.9126,-0.9174,-0.9184,-0.92,-0.9212,-0.9238,-0.9255,-0.928,-0.93,-0.9329,-0.9336,-0.9332,-0.9319,-0.9304,-0.931,-0.9396,-0.9337,-0.9337,-0.9338,-0.9338,-0.9339,-0.8958,-0.8959,-0.899,-0.9005,-0.9026,-0.9045,-0.905,-0.9079,-0.9093,-0.9117,-0.9141,-0.9154,-0.9183,-0.9219,-0.9237,-0.9247,-0.9263,-0.9258,-0.9257,-0.9254,-0.9248,-0.9304,-0.9252,-0.9252,-0.9252,-0.9253,-0.9253,0,-0.8892,-0.8914,-0.8929,-0.8957,-0.8969,-0.8998,-0.9023,-0.9031,-0.9042,-0.9066,-0.9082,-0.91,-0.9117,-0.9151,-0.9171,-0.9173,-0.9187,-0.9176,-0.9176,-0.9179,-0.9234,-0.9234,-0.9165,-0.9165,-0.9165,-0.9165,-0.9165,-0.9165,-0.886,-0.8863,-0.8885,-0.8899,-0.8921,-0.8934,-0.8946,-0.8963,-0.8983,-0.9001,-0.9015,-0.9038,-0.9066,-0.9088,-0.9105,-0.9115,-0.9119,-0.9104,-0.9118,-0.9168,-0.9176,-0.9184,-0.9184,-0.9105,-0.9105,-0.9062,-0.9062,-0.9061]}]]